| time (UTC) | temp F | wind direction | speed knots | gust knots | rain 1hr in | rain 24hr in | rain mn in | humidity % | barometer mb |
| 20260504045016 | 49 | 175 | 4.3 | 5.2 | 0.00 | 0.00 | 0.00 | 65 | 1012.3 |
| 20260504044040 | 49 | 178 | 5.2 | 6.1 | 0.00 | 0.00 | 0.00 | 65 | 1012.3 |
| 20260504043105 | 49 | 180 | 4.3 | 6.1 | 0.00 | 0.00 | 0.00 | 65 | 1012.3 |
| 20260504042029 | 49 | 177 | 3.5 | 4.3 | 0.00 | 0.00 | 0.00 | 65 | 1012.4 |
| 20260504041015 | 49 | 172 | 3.5 | 4.3 | 0.00 | 0.00 | 0.00 | 64 | 1012.5 |
| 20260504040040 | 49 | 166 | 3.5 | 4.3 | 0.00 | 0.00 | 0.00 | 63 | 1012.6 |
| 20260504035043 | 48 | 185 | 3.5 | 3.5 | 0.00 | 0.00 | 0.00 | 65 | 1013.0 |
| 20260504034027 | 49 | 203 | 4.3 | 5.2 | 0.00 | 0.00 | 0.00 | 64 | 1013.1 |
| 20260504033026 | 49 | 229 | 3.5 | 5.2 | 0.00 | 0.00 | 0.00 | 65 | 1013.1 |
| 20260504032018 | 49 | 255 | 2.6 | 4.3 | 0.00 | 0.00 | 0.00 | 64 | 1013.0 |
| 20260504031022 | 49 | 184 | 3.5 | 5.2 | 0.00 | 0.00 | 0.00 | 63 | 1013.0 |
| 20260504030021 | 49 | 178 | 3.5 | 4.3 | 0.00 | 0.00 | 0.00 | 63 | 1012.9 |
| 20260504025019 | 50 | 194 | 3.5 | 4.3 | 0.00 | 0.00 | 0.00 | 63 | 1013.0 |
| 20260504024017 | 50 | 180 | 3.5 | 3.5 | 0.00 | 0.00 | 0.00 | 62 | 1013.0 |
| 20260504023016 | 50 | 183 | 2.6 | 2.6 | 0.00 | 0.00 | 0.00 | 62 | 1013.0 |
| 20260504022026 | 50 | 186 | 2.6 | 3.5 | 0.00 | 0.00 | 0.00 | 63 | 1013.1 |
| 20260504021031 | 51 | 194 | 2.6 | 3.5 | 0.00 | 0.00 | 0.00 | 61 | 1013.0 |
| 20260504020037 | 51 | 178 | 2.6 | 3.5 | 0.00 | 0.00 | 0.00 | 60 | 1012.9 |
| 20260504015021 | 52 | 203 | 2.6 | 3.5 | 0.00 | 0.00 | 0.00 | 58 | 1012.9 |
| 20260504014025 | 53 | 200 | 3.5 | 3.5 | 0.00 | 0.00 | 0.00 | 57 | 1012.8 |
| 20260504013029 | 53 | 203 | 3.5 | 4.3 | 0.00 | 0.00 | 0.00 | 56 | 1012.7 |
| 20260504012016 | 54 | 207 | 3.5 | 4.3 | 0.00 | 0.00 | 0.00 | 56 | 1012.6 |
| 20260504011100 | 54 | 206 | 4.3 | 5.2 | 0.00 | 0.00 | 0.00 | 55 | 1012.6 |
| 20260504010045 | 54 | 208 | 4.3 | 5.2 | 0.00 | 0.00 | 0.00 | 54 | 1012.6 |
| 20260504005029 | 55 | 214 | 4.3 | 5.2 | 0.00 | 0.00 | 0.00 | 53 | 1012.5 |
| 20260504004015 | 56 | 212 | 6.1 | 7.0 | 0.00 | 0.00 | 0.00 | 51 | 1012.5 |
| 20260504003020 | 56 | 209 | 7.0 | 9.6 | 0.00 | 0.00 | 0.00 | 51 | 1012.5 |
| 20260504002024 | 56 | 215 | 6.1 | 7.0 | 0.00 | 0.00 | 0.00 | 51 | 1012.6 |
| 20260504001028 | 57 | 213 | 6.1 | 9.6 | 0.00 | 0.00 | 0.00 | 51 | 1012.6 |
| 20260504000032 | 57 | 231 | 6.1 | 7.0 | 0.00 | 0.00 | 0.00 | 49 | 1012.6 |
| 20260503235019 | 57 | 217 | 6.1 | 7.8 | 0.00 | 0.00 | 0.00 | 49 | 1012.6 |
| 20260503234024 | 57 | 228 | 6.1 | 7.8 | 0.00 | 0.00 | 0.00 | 49 | 1012.6 |
| 20260503233027 | 58 | 228 | 9.6 | 11.3 | 0.00 | 0.00 | 0.00 | 48 | 1012.6 |
| 20260503232052 | 59 | 222 | 10.4 | 14.8 | 0.00 | 0.00 | 0.00 | 46 | 1012.7 |
| 20260503231018 | 59 | 236 | 7.8 | 9.6 | 0.00 | 0.00 | 0.00 | 45 | 1012.6 |
| 20260503230022 | 60 | 226 | 8.7 | 13.0 | 0.00 | 0.00 | 0.00 | 44 | 1012.6 |
| 20260503225026 | 60 | 223 | 7.8 | 9.6 | 0.00 | 0.00 | 0.00 | 44 | 1012.7 |
| 20260503224031 | 60 | 225 | 7.0 | 11.3 | 0.00 | 0.00 | 0.00 | 45 | 1012.8 |
| 20260503223016 | 59 | 233 | 11.3 | 14.8 | 0.00 | 0.00 | 0.00 | 45 | 1012.9 |
| 20260503222021 | 60 | 228 | 11.3 | 13.9 | 0.00 | 0.00 | 0.00 | 45 | 1012.9 |
| 20260503221025 | 59 | 234 | 11.3 | 14.8 | 0.00 | 0.00 | 0.00 | 45 | 1012.9 |
| 20260503220029 | 59 | 223 | 10.4 | 15.6 | 0.00 | 0.00 | 0.00 | 46 | 1012.9 |
| 20260503215016 | 59 | 234 | 7.8 | 10.4 | 0.00 | 0.00 | 0.00 | 44 | 1012.8 |
| 20260503214020 | 59 | 230 | 8.7 | 11.3 | 0.00 | 0.00 | 0.00 | 46 | 1012.7 |
| 20260503213024 | 59 | 230 | 7.0 | 8.7 | 0.00 | 0.00 | 0.00 | 46 | 1012.7 |
| 20260503212023 | 59 | 249 | 8.7 | 15.6 | 0.00 | 0.00 | 0.00 | 45 | 1012.7 |
| 20260503211015 | 60 | 224 | 11.3 | 13.9 | 0.00 | 0.00 | 0.00 | 45 | 1012.6 |
| 20260503210039 | 61 | 228 | 7.8 | 9.6 | 0.00 | 0.00 | 0.00 | 44 | 1012.7 |
| 20260503205018 | 61 | 244 | 7.0 | 9.6 | 0.00 | 0.00 | 0.00 | 45 | 1012.7 |
| 20260503204015 | 60 | 225 | 9.6 | 11.3 | 0.00 | 0.00 | 0.00 | 45 | 1012.8 |
| 20260503203032 | 60 | 215 | 9.6 | 16.5 | 0.00 | 0.00 | 0.00 | 46 | 1012.9 |
| 20260503202019 | 60 | 224 | 10.4 | 13.0 | 0.00 | 0.00 | 0.00 | 44 | 1013.0 |
| 20260503201023 | 61 | 226 | 9.6 | 11.3 | 0.00 | 0.00 | 0.00 | 45 | 1013.1 |
| 20260503200047 | 62 | 230 | 5.2 | 9.6 | 0.00 | 0.00 | 0.00 | 39 | 1013.2 |
| 20260503195051 | 63 | 229 | 4.3 | 7.8 | 0.00 | 0.00 | 0.00 | 41 | 1013.4 |
| 20260503194037 | 62 | 240 | 5.2 | 8.7 | 0.00 | 0.00 | 0.00 | 38 | 1013.6 |
| 20260503193022 | 62 | 255 | 5.2 | 7.8 | 0.00 | 0.00 | 0.00 | 39 | 1013.8 |
| 20260503192026 | 63 | 257 | 6.1 | 11.3 | 0.00 | 0.00 | 0.00 | 39 | 1013.9 |
| 20260503191051 | 64 | 253 | 4.3 | 7.8 | 0.00 | 0.00 | 0.00 | 38 | 1014.1 |
| 20260503190016 | 63 | 250 | 7.0 | 10.4 | 0.00 | 0.00 | 0.00 | 38 | 1014.3 |
| 20260503185021 | 61 | 229 | 10.4 | 15.6 | 0.00 | 0.00 | 0.00 | 39 | 1014.3 |
| 20260503184026 | 62 | 232 | 8.7 | 14.8 | 0.00 | 0.00 | 0.00 | 41 | 1014.3 |
| 20260503183030 | 60 | 257 | 7.0 | 12.2 | 0.00 | 0.00 | 0.00 | 38 | 1014.5 |
| 20260503182036 | 61 | 251 | 7.0 | 9.6 | 0.00 | 0.00 | 0.00 | 40 | 1014.6 |
| 20260503181020 | 62 | 242 | 7.0 | 11.3 | 0.00 | 0.00 | 0.00 | 39 | 1014.8 |
| 20260503180025 | 61 | 243 | 7.0 | 9.6 | 0.00 | 0.00 | 0.00 | 39 | 1014.9 |
| 20260503175029 | 60 | 236 | 9.6 | 16.5 | 0.00 | 0.00 | 0.00 | 41 | 1014.9 |
| 20260503174015 | 61 | 233 | 4.3 | 7.8 | 0.00 | 0.00 | 0.00 | 44 | 1014.9 |
| 20260503173020 | 60 | 240 | 7.8 | 11.3 | 0.00 | 0.00 | 0.00 | 41 | 1014.9 |
| 20260503172024 | 59 | 250 | 6.1 | 9.6 | 0.00 | 0.00 | 0.00 | 42 | 1015.1 |
| 20260503171028 | 59 | 268 | 7.0 | 10.4 | 0.00 | 0.00 | 0.00 | 42 | 1015.2 |
| 20260503131018 | 46 | 202 | 5.2 | 7.0 | 0.00 | 0.00 | 0.00 | 60 | 1017.0 |
| 20260503081021 | 34 | 181 | 2.6 | 3.5 | 0.00 | 0.01 | 0.00 | 89 | 1016.6 |